SCP
0 -0 0 0 -0 -0 0 0 0 0 0 0 0 0 0 0 0 0 0 0 0 0 0 0 0 0 0 0 0 0 0 0 0 0 0 0 0 0 0 0 0 0 0 0
-0 0 -0 -0 -0 0 0 0 0 0 0 0 0 0 0 0 0 0 0 0 0 0 0 0 0 0 0 0 0 0 0 0 0 0 0 0 0 0 0 0 0 0 0 0
0 0 -0 -0 -0 -0 0 0 0 0 0 0 0 0 0 0 0 0 0 0 0 0 0 0 0 0 0 0 0 0 0 0 0 0 0 0 0 0 0 0 0 0 0 0
0 0 0 0 -0 0 0 0 0 0 0 0 0 0 0 0 0 0 0 0 0 0 0 0 0 0 0 0 0 0 0 0 0 0 0 0 0 0 0 0 0 0 0 0
0 0 0 0 0 0 0 0 0 0 0 0 0 0 0 0 0 0 0 0 0 0 0 0 0 0 0 0 0 0 0 0 0 0 0 0 0 0 0 0 0 0 0 0
0 0 0 0 0 0 0 0 0 0 0 0 0 0 0 0 0 0 0 0 0 0 -0 -0 0 0 0 0 0 0 0 0 0 0 0 0 0 0 0 0 0 0 0 0
0 0 0 0 0 0 0 0 0 0 0 0 0 0 0 0 0 0 0 0 0 0 0 -0 -0 -0 -0 -0 0 0 0 0 0 0 0 0 0 0 0 0 0 0 0 0
0 0 0 0 0 0 0 0 0 0 0 0 0 0 0 0 0 0 0 0 0 -0 0 0 -0 0 -0 -0 0 0 0 0 0 0 0 0 0 0 0 0 0 0 0 0
0 0 0 0 0 0 0 0 0 0 0 0 0 0 0 0 0 0 0 0 0 0 0 0 0 0 0 0 0 0 0 0 0 0 0 0 0 0 0 0 0 0 0 0
0 0 0 0 -0 0 -0 -0 -0 -0 -0 0 0 0 0 0 0 0 0 0 0 0 0 0 0 0 0 0 -0 0 0 0 0 0 0 0 0 0 0 0 0 0 0 0
0 0 -0 -0 -0 0 -0 -0 -0 0 -0 0 0 0 0 0 0 0 0 0 0 0 0 0 0 0 0 0 0 -0 0 -0 -0 0 0 0 0 0 0 0 0 0 0 0
-0 0 -0 -0 -0 0 -0 -0 -0 0 0 0 0 0 0 0 0 0 0 0 0 0 0 0 0 0 0 0 0 0 0 0 0 0 0 0 0 0 0 0 0 0 0 0
-0 -0 -0 -0 0 0 0 0 0 0 0 0 0 0 0 0 0 0 0 0 0 0 0 0 0 0 0 0 0 0 0 -0 0 0 0 0 0 0 0 0 0 0 0 0
-0 -0 -0 -0 0 0 0 0 0 0 0 0 0 0 0 0 0 0 0 0 0 0 0 0 0 0 0 0 0 0 0 -0 0 0 0 0 0 0 0 0 0 0 0 0
0 -0 0 0 0 0 0 0 0 0 0 0 0 0 0 0 0 0 0 0 0 0 0 0 0 0 0 0 0 0 0 0 0 0 0 0 0 0 0 0 0 0 0 0
0 0 0 0 0 0 0 0 0 0 0 0 0 0 0 0 0 0 0 0 0 0 0 0 0 0 0 0 0 0 -0 -0 -0 0 0 0 -0 0 0 0 0 0 0 0
0 0 0 0 0 0 0 0 0 0 0 0 0 0 0 0 0 0 0 0 0 0 0 0 0 0 0 0 0 0 -0 -0 -0 -0 0 0 0 0 0 0 0 0 0 0
0 0 0 0 0 0 0 0 0 0 0 0 0 0 0 0 0 0 0 0 0 0 0 0 0 0 0 0 0 0 0 -0 -0 -0 -0 0 0 0 0 0 0 0 0 0
0 0 0 0 0 0 0 0 0 0 0 0 0 0 0 0 0 0 0 0 0 0 0 0 0 0 0 0 0 0 0 0 -0 0 0 -0 0 0 0 0 0 0 0 0
0 0 0 0 0 0 0 0 0 0 0 0 0 0 0 0 0 0 0 0 0 0 0 0 0 -0 0 0 0 0 -0 -0 -0 0 -0 -0 -0 0 0 0 0 0 0 0
0 0 0 0 0 0 0 0 0 0 0 0 0 0 0 0 0 0 0 0 0 0 0 0 0 0 0 0 0 0 0 0 -0 -0 0 0 0 0 -0 -0 0 0 0 0
0 0 0 0 0 0 0 0 0 0 0 0 0 0 0 0 0 0 0 0 0 0 0 0 0 0 0 0 0 -0 0 0 -0 -0 -0 0 0 0 -0 0 0 0 0 0
0 0 0 0 0 0 0 0 0 0 0 0 0 0 0 0 0 0 0 0 0 0 0 0 0 0 0 0 0 -0 -0 -0 0 -0 -0 -0 -0 -0 0 -0 0 0 0 0
0 0 0 0 0 0 0 0 0 0 0 0 0 0 0 0 0 0 0 0 0 0 0 0 0 0 0 0 0 0 -0 -0 -0 -0 -0 -0 -0 -0 -0 -0 -0 0 0 0
0 0 0 0 0 0 0 0 0 0 0 0 0 0 0 0 0 0 0 0 0 0 0 0 0 0 0 0 0 0 0 -0 -0 -0 -0 -0 -0 -0 -0 -0 -0 -0 0 0
0 0 0 0 0 0 0 0 0 0 0 0 0 0 0 0 0 0 0 0 0 0 0 0 0 0 0 0 0 0 0 0 -0 -0 -0 -0 -0 -0 -0 -0 -0 0 -0 0
0 0 0 0 0 0 0 0 0 0 0 0 0 0 0 0 0 0 0 0 0 0 0 0 0 0 0 0 0 0 0 0 0 0 -0 -0 -0 -0 -0 -0 -0 -0 -0 -0
Wind_Speed_500mb
52 53 51 51 53 51 49 15 4 43 32 14 8 5 13 13 6 9 6 7 11 10 9 7 9 11 9 12 7 5 3 7 12 17 14 9 13 19 47 23 40 38 26 28
51 50 49 46 44 48 45 12 11 35 25 8 9 10 7 6 11 13 8 5 10 9 4 8 15 9 7 11 7 6 9 7 9 13 16 9 10 2 14 24 17 40 35 29
49 47 43 41 40 38 27 10 4 17 28 13 8 10 7 12 17 1 10 8 2 3 13 10 5 8 5 6 7 10 7 7 16 19 21 22 15 14 8 21 30 36 30 37
46 41 37 39 35 31 18 13 7 8 8 15 15 9 7 12 11 6 10 5 6 7 11 13 13 10 6 13 11 8 6 12 16 32 35 34 37 40 33 23 29 26 38 33
40 34 34 34 35 26 19 8 6 6 4 5 7 5 3 6 9 7 12 14 15 10 11 16 11 15 16 14 17 14 10 10 13 34 32 31 38 41 38 36 34 24 27 24
34 33 32 30 28 24 13 13 10 6 7 8 5 3 6 9 25 17 27 18 14 14 26 26 36 28 29 26 11 18 11 6 9 15 17 27 23 44 38 27 12 34 32 12
34 32 30 24 17 17 15 10 10 7 5 6 7 15 33 22 26 14 20 28 11 5 16 38 30 46 50 45 36 30 15 12 6 17 22 13 3 18 26 25 10 14 16 8
34 32 27 17 13 11 11 8 9 5 3 13 14 26 22 32 25 15 13 14 15 29 19 8 11 10 15 27 39 37 34 15 9 9 13 20 16 13 9 4 7 8 8 13
35 30 19 10 8 11 11 7 8 7 2 11 16 15 23 9 6 9 8 17 22 7 6 7 10 11 7 13 12 21 24 28 16 13 12 11 6 31 32 21 11 16 15 18
32 25 14 9 10 11 13 8 8 6 4 12 20 10 9 19 2 5 11 20 6 10 4 5 5 4 5 9 17 14 14 15 25 23 16 18 8 43 37 11 10 11 19 20
24 21 14 10 12 12 11 11 5 3 6 12 17 20 19 17 10 4 12 9 3 5 5 5 5 6 2 6 11 16 15 16 12 14 13 19 31 27 10 10 4 12 18 21
26 24 15 10 14 12 10 10 10 4 2 8 17 17 17 19 11 10 7 3 7 5 5 4 5 5 8 15 6 4 9 6 4 7 3 9 21 15 31 19 19 11 17 22
27 26 18 15 17 15 7 5 8 13 9 9 8 11 22 25 16 11 6 4 7 6 10 8 5 5 7 9 7 5 4 2 5 4 3 13 9 21 15 18 17 15 16 20
25 27 22 21 16 9 3 1 1 7 6 6 3 15 11 20 29 28 25 19 15 9 8 9 6 6 15 6 6 5 9 16 9 7 14 7 7 29 26 18 13 13 14 19
16 19 19 13 10 7 4 5 3 6 4 5 13 27 8 7 11 14 25 31 30 17 9 7 8 10 9 11 4 8 28 12 7 5 34 20 38 37 36 35 29 21 22 24
13 13 11 11 11 13 10 4 4 14 10 5 4 13 11 10 9 7 10 6 13 16 9 7 10 11 20 8 7 30 55 50 51 20 31 38 25 38 40 40 38 34 29 26
10 8 8 8 10 12 6 5 14 15 11 3 8 6 4 9 9 4 5 11 12 10 6 7 6 11 19 6 11 42 45 46 56 60 39 35 48 37 47 48 42 35 36 35
12 9 9 10 14 12 5 11 15 10 7 3 5 6 6 2 5 2 5 6 8 13 5 6 8 10 9 6 27 34 41 36 41 41 46 47 44 47 53 63 63 61 57 53
15 14 15 9 3 6 13 17 10 7 5 4 4 5 5 3 2 1 3 2 5 8 6 9 6 5 7 11 28 29 32 30 31 35 38 39 45 48 46 44 53 53 54 55
18 12 5 4 8 21 13 3 4 2 3 6 8 5 4 5 6 6 9 5 4 2 6 8 7 5 8 17 21 21 17 20 26 32 41 41 46 42 43 47 50 48 51 53
13 8 5 15 20 5 2 1 3 2 5 10 11 13 6 6 4 1 4 5 6 4 2 1 3 5 9 18 23 20 13 13 15 21 24 26 28 34 37 38 44 49 49 51
16 15 17 9 5 3 4 2 3 5 5 6 5 5 10 5 8 5 2 3 4 5 7 2 1 3 10 15 23 22 19 11 9 12 18 26 29 33 41 41 38 39 52 47
12 3 3 4 2 5 2 5 4 7 6 7 5 10 5 5 7 2 3 2 5 7 2 1 3 6 6 9 17 19 19 21 15 13 12 16 25 34 38 38 41 34 35 47
4 2 9 2 4 7 6 5 7 12 16 20 19 5 4 4 6 2 2 3 5 4 3 4 1 6 8 8 9 15 15 14 19 18 14 16 20 23 30 32 32 37 36 38
4 3 5 8 10 14 14 16 18 20 20 20 3 3 4 3 3 3 4 5 2 2 3 2 5 11 13 12 14 15 14 6 9 18 16 14 15 19 21 24 30 28 31 32
6 9 7 11 8 10 8 13 18 18 19 9 2 2 2 3 2 2 3 2 2 2 3 8 16 11 6 14 19 19 11 6 1 11 16 11 11 13 19 19 24 29 26 25
7 10 20 25 29 26 18 18 18 15 7 2 2 5 4 2 3 3 3 1 3 3 4 5 5 9 13 21 19 6 10 5 3 8 17 12 8 9 18 21 20 29 30 26
Wind_Direction_500mb
346 347 348 348 350 355 7 22 60 2 11 46 34 39 340 331 335 356 317 291 264 239 187 227 237 245 238 168 154 196 208 269 264 267 292 315 328 253 212 220 217 230 258 243
347 349 349 354 358 3 2 18 3 22 31 65 39 339 339 304 336 350 334 317 14 14 233 258 241 231 169 175 156 172 166 237 282 253 225 160 225 204 292 249 240 229 221 225
349 349 349 357 7 4 12 19 30 31 55 73 55 24 17 348 335 56 343 308 14 211 239 227 270 224 198 205 203 177 190 229 258 273 332 326 295 314 304 274 223 227 231 238
349 347 351 359 10 9 20 36 63 30 25 37 20 0 355 350 350 338 327 260 249 264 248 237 228 217 278 222 219 154 217 257 266 281 290 285 273 268 268 258 250 232 225 243
347 348 356 356 2 22 40 62 38 37 73 347 312 15 3 298 298 243 263 236 262 222 213 234 246 232 214 220 198 182 180 258 283 290 291 269 259 252 247 249 243 249 260 260
347 353 354 354 1 31 63 62 48 73 12 351 326 328 305 286 301 232 246 271 289 271 275 288 258 257 265 258 256 208 191 228 293 276 324 313 266 241 232 230 222 215 215 201
351 351 350 354 7 44 55 52 64 59 32 342 328 298 305 299 305 293 287 278 259 290 297 304 268 256 260 253 233 216 180 177 235 284 300 236 197 24 214 167 151 241 248 297
347 346 347 352 8 53 52 52 62 55 1 310 313 329 331 330 330 326 302 292 277 299 287 272 281 238 230 228 224 218 217 199 248 258 280 304 166 65 116 223 120 347 327 354
346 346 352 12 42 77 77 65 42 33 309 25 312 307 354 333 337 325 330 325 319 298 263 248 238 225 196 193 158 208 207 215 223 252 259 249 36 339 339 306 208 18 15 25
352 360 20 40 96 113 109 105 63 38 335 341 342 339 324 341 344 264 285 329 320 354 264 261 283 280 129 177 164 168 164 190 217 235 250 278 331 334 317 226 95 8 26 30
12 19 40 91 121 134 131 133 122 72 328 338 360 5 352 350 335 305 315 313 354 284 295 302 322 291 357 204 131 157 169 186 200 222 236 249 355 338 318 21 353 10 23 21
27 38 52 90 140 145 147 148 129 78 271 326 1 13 16 8 349 316 335 269 294 321 305 332 310 327 328 353 98 43 159 235 243 238 258 298 292 305 283 315 316 323 4 9
47 43 46 83 139 148 172 244 292 315 305 303 12 11 24 37 38 24 315 336 319 336 324 332 339 353 335 360 26 304 315 71 224 271 222 266 40 337 301 318 313 311 5 359
48 52 64 86 96 107 129 296 291 334 323 335 306 357 358 38 54 62 61 41 27 42 44 40 13 341 350 338 293 335 325 306 307 244 236 213 340 349 360 338 344 344 5 8
51 55 59 54 61 62 31 32 35 360 329 294 285 313 251 345 20 51 64 53 50 38 44 24 19 344 337 322 289 11 350 336 331 339 17 28 37 15 23 34 31 20 8 359
44 46 44 33 20 8 330 350 277 338 326 293 285 304 301 276 311 306 36 23 41 53 55 13 357 348 356 2 357 351 9 26 33 14 35 45 36 25 28 34 30 33 29 12
25 29 38 15 346 335 342 318 311 327 325 293 284 271 255 303 310 309 331 36 41 47 75 38 358 342 357 351 6 346 2 21 28 28 20 20 27 20 23 29 26 28 30 18
349 342 322 319 322 325 302 320 319 320 328 314 305 287 273 235 305 315 357 7 28 29 36 25 13 347 356 17 355 358 8 6 23 31 32 30 29 26 25 27 24 24 24 17
340 326 316 312 314 322 306 312 313 316 275 293 269 298 350 243 262 175 90 70 51 8 11 23 4 346 35 339 350 360 9 16 8 27 37 36 30 27 30 30 31 24 19 11
332 332 340 289 305 317 319 38 2 330 268 237 245 248 266 220 196 176 143 153 126 84 24 339 27 11 17 15 13 4 15 24 25 25 23 25 31 29 25 28 34 30 23 23
340 319 281 304 316 320 338 229 201 231 257 223 235 217 276 229 271 3 216 139 151 107 103 222 3 344 338 356 8 15 8 11 24 32 28 33 37 31 32 31 32 35 42 37
309 300 296 300 299 278 251 257 183 205 287 228 208 244 239 228 223 251 203 128 168 86 157 186 316 307 323 346 0 9 7 345 333 2 19 21 25 34 35 30 28 27 36 44
320 316 283 297 258 4 315 328 304 304 268 267 284 313 212 197 199 165 211 101 86 142 108 170 249 273 280 330 351 4 3 5 344 323 337 5 7 8 15 21 27 28 26 36
294 290 322 248 272 236 232 231 274 293 274 310 309 262 228 184 179 161 158 78 174 125 143 215 195 268 318 327 338 354 352 354 358 349 348 349 5 360 359 2 5 21 26 30
264 212 250 231 270 284 278 285 294 311 308 322 253 196 215 134 139 50 125 170 95 215 201 255 259 319 309 313 323 336 338 325 354 13 5 357 359 6 9 16 19 11 22 28
230 234 251 247 271 285 289 268 284 313 323 327 295 258 241 82 20 199 91 90 169 75 255 294 310 331 350 326 318 318 332 315 327 17 9 352 360 10 8 8 19 21 22 18
235 247 252 255 273 270 271 270 283 293 314 309 313 300 354 112 189 132 180 77 54 104 317 311 29 21 359 347 339 319 329 326 193 25 14 358 0 23 25 29 29 28 31 30
Wind_Speed_850mb
52 53 51 51 53 51 49 15 4 43 32 14 8 5 13 13 6 9 6 7 11 10 9 7 9 11 9 12 7 5 3 7 12 17 14 9 13 19 47 23 40 38 26 28
51 50 49 46 44 48 45 12 11 35 25 8 9 10 7 6 11 13 8 5 10 9 4 8 15 9 7 11 7 6 9 7 9 13 16 9 10 2 14 24 17 40 35 29
49 47 43 41 40 38 27 10 4 17 28 13 8 10 7 12 17 1 10 8 2 3 13 10 5 8 5 6 7 10 7 7 16 19 21 22 15 14 8 21 30 36 30 37
46 41 37 39 35 31 18 13 7 8 8 15 15 9 7 12 11 6 10 5 6 7 11 13 13 10 6 13 11 8 6 12 16 32 35 34 37 40 33 23 29 26 38 33
40 34 34 34 35 26 19 8 6 6 4 5 7 5 3 6 9 7 12 14 15 10 11 16 11 15 16 14 17 14 10 10 13 34 32 31 38 41 38 36 34 24 27 24
34 33 32 30 28 24 13 13 10 6 7 8 5 3 6 9 25 17 27 18 14 14 26 26 36 28 29 26 11 18 11 6 9 15 17 27 23 44 38 27 12 34 32 12
34 32 30 24 17 17 15 10 10 7 5 6 7 15 33 22 26 14 20 28 11 5 16 38 30 46 50 45 36 30 15 12 6 17 22 13 3 18 26 25 10 14 16 8
34 32 27 17 13 11 11 8 9 5 3 13 14 26 22 32 25 15 13 14 15 29 19 8 11 10 15 27 39 37 34 15 9 9 13 20 16 13 9 4 7 8 8 13
35 30 19 10 8 11 11 7 8 7 2 11 16 15 23 9 6 9 8 17 22 7 6 7 10 11 7 13 12 21 24 28 16 13 12 11 6 31 32 21 11 16 15 18
32 25 14 9 10 11 13 8 8 6 4 12 20 10 9 19 2 5 11 20 6 10 4 5 5 4 5 9 17 14 14 15 25 23 16 18 8 43 37 11 10 11 19 20
24 21 14 10 12 12 11 11 5 3 6 12 17 20 19 17 10 4 12 9 3 5 5 5 5 6 2 6 11 16 15 16 12 14 13 19 31 27 10 10 4 12 18 21
26 24 15 10 14 12 10 10 10 4 2 8 17 17 17 19 11 10 7 3 7 5 5 4 5 5 8 15 6 4 9 6 4 7 3 9 21 15 31 19 19 11 17 22
27 26 18 15 17 15 7 5 8 13 9 9 8 11 22 25 16 11 6 4 7 6 10 8 5 5 7 9 7 5 4 2 5 4 3 13 9 21 15 18 17 15 16 20
25 27 22 21 16 9 3 1 1 7 6 6 3 15 11 20 29 28 25 19 15 9 8 9 6 6 15 6 6 5 9 16 9 7 14 7 7 29 26 18 13 13 14 19
16 19 19 13 10 7 4 5 3 6 4 5 13 27 8 7 11 14 25 31 30 17 9 7 8 10 9 11 4 8 28 12 7 5 34 20 38 37 36 35 29 21 22 24
13 13 11 11 11 13 10 4 4 14 10 5 4 13 11 10 9 7 10 6 13 16 9 7 10 11 20 8 7 30 55 50 51 20 31 38 25 38 40 40 38 34 29 26
10 8 8 8 10 12 6 5 14 15 11 3 8 6 4 9 9 4 5 11 12 10 6 7 6 11 19 6 11 42 45 46 56 60 39 35 48 37 47 48 42 35 36 35
12 9 9 10 14 12 5 11 15 10 7 3 5 6 6 2 5 2 5 6 8 13 5 6 8 10 9 6 27 34 41 36 41 41 46 47 44 47 53 63 63 61 57 53
15 14 15 9 3 6 13 17 10 7 5 4 4 5 5 3 2 1 3 2 5 8 6 9 6 5 7 11 28 29 32 30 31 35 38 39 45 48 46 44 53 53 54 55
18 12 5 4 8 21 13 3 4 2 3 6 8 5 4 5 6 6 9 5 4 2 6 8 7 5 8 17 21 21 17 20 26 32 41 41 46 42 43 47 50 48 51 53
13 8 5 15 20 5 2 1 3 2 5 10 11 13 6 6 4 1 4 5 6 4 2 1 3 5 9 18 23 20 13 13 15 21 24 26 28 34 37 38 44 49 49 51
16 15 17 9 5 3 4 2 3 5 5 6 5 5 10 5 8 5 2 3 4 5 7 2 1 3 10 15 23 22 19 11 9 12 18 26 29 33 41 41 38 39 52 47
12 3 3 4 2 5 2 5 4 7 6 7 5 10 5 5 7 2 3 2 5 7 2 1 3 6 6 9 17 19 19 21 15 13 12 16 25 34 38 38 41 34 35 47
4 2 9 2 4 7 6 5 7 12 16 20 19 5 4 4 6 2 2 3 5 4 3 4 1 6 8 8 9 15 15 14 19 18 14 16 20 23 30 32 32 37 36 38
4 3 5 8 10 14 14 16 18 20 20 20 3 3 4 3 3 3 4 5 2 2 3 2 5 11 13 12 14 15 14 6 9 18 16 14 15 19 21 24 30 28 31 32
6 9 7 11 8 10 8 13 18 18 19 9 2 2 2 3 2 2 3 2 2 2 3 8 16 11 6 14 19 19 11 6 1 11 16 11 11 13 19 19 24 29 26 25
7 10 20 25 29 26 18 18 18 15 7 2 2 5 4 2 3 3 3 1 3 3 4 5 5 9 13 21 19 6 10 5 3 8 17 12 8 9 18 21 20 29 30 26
Wind_Direction_850mb
346 347 348 348 350 355 7 22 60 2 11 46 34 39 340 331 335 356 317 291 264 239 187 227 237 245 238 168 154 196 208 269 264 267 292 315 328 253 212 220 217 230 258 243
347 349 349 354 358 3 2 18 3 22 31 65 39 339 339 304 336 350 334 317 14 14 233 258 241 231 169 175 156 172 166 237 282 253 225 160 225 204 292 249 240 229 221 225
349 349 349 357 7 4 12 19 30 31 55 73 55 24 17 348 335 56 343 308 14 211 239 227 270 224 198 205 203 177 190 229 258 273 332 326 295 314 304 274 223 227 231 238
349 347 351 359 10 9 20 36 63 30 25 37 20 0 355 350 350 338 327 260 249 264 248 237 228 217 278 222 219 154 217 257 266 281 290 285 273 268 268 258 250 232 225 243
347 348 356 356 2 22 40 62 38 37 73 347 312 15 3 298 298 243 263 236 262 222 213 234 246 232 214 220 198 182 180 258 283 290 291 269 259 252 247 249 243 249 260 260
347 353 354 354 1 31 63 62 48 73 12 351 326 328 305 286 301 232 246 271 289 271 275 288 258 257 265 258 256 208 191 228 293 276 324 313 266 241 232 230 222 215 215 201
351 351 350 354 7 44 55 52 64 59 32 342 328 298 305 299 305 293 287 278 259 290 297 304 268 256 260 253 233 216 180 177 235 284 300 236 197 24 214 167 151 241 248 297
347 346 347 352 8 53 52 52 62 55 1 310 313 329 331 330 330 326 302 292 277 299 287 272 281 238 230 228 224 218 217 199 248 258 280 304 166 65 116 223 120 347 327 354
346 346 352 12 42 77 77 65 42 33 309 25 312 307 354 333 337 325 330 325 319 298 263 248 238 225 196 193 158 208 207 215 223 252 259 249 36 339 339 306 208 18 15 25
352 360 20 40 96 113 109 105 63 38 335 341 342 339 324 341 344 264 285 329 320 354 264 261 283 280 129 177 164 168 164 190 217 235 250 278 331 334 317 226 95 8 26 30
12 19 40 91 121 134 131 133 122 72 328 338 360 5 352 350 335 305 315 313 354 284 295 302 322 291 357 204 131 157 169 186 200 222 236 249 355 338 318 21 353 10 23 21
27 38 52 90 140 145 147 148 129 78 271 326 1 13 16 8 349 316 335 269 294 321 305 332 310 327 328 353 98 43 159 235 243 238 258 298 292 305 283 315 316 323 4 9
47 43 46 83 139 148 172 244 292 315 305 303 12 11 24 37 38 24 315 336 319 336 324 332 339 353 335 360 26 304 315 71 224 271 222 266 40 337 301 318 313 311 5 359
48 52 64 86 96 107 129 296 291 334 323 335 306 357 358 38 54 62 61 41 27 42 44 40 13 341 350 338 293 335 325 306 307 244 236 213 340 349 360 338 344 344 5 8
51 55 59 54 61 62 31 32 35 360 329 294 285 313 251 345 20 51 64 53 50 38 44 24 19 344 337 322 289 11 350 336 331 339 17 28 37 15 23 34 31 20 8 359
44 46 44 33 20 8 330 350 277 338 326 293 285 304 301 276 311 306 36 23 41 53 55 13 357 348 356 2 357 351 9 26 33 14 35 45 36 25 28 34 30 33 29 12
25 29 38 15 346 335 342 318 311 327 325 293 284 271 255 303 310 309 331 36 41 47 75 38 358 342 357 351 6 346 2 21 28 28 20 20 27 20 23 29 26 28 30 18
349 342 322 319 322 325 302 320 319 320 328 314 305 287 273 235 305 315 357 7 28 29 36 25 13 347 356 17 355 358 8 6 23 31 32 30 29 26 25 27 24 24 24 17
340 326 316 312 314 322 306 312 313 316 275 293 269 298 350 243 262 175 90 70 51 8 11 23 4 346 35 339 350 360 9 16 8 27 37 36 30 27 30 30 31 24 19 11
332 332 340 289 305 317 319 38 2 330 268 237 245 248 266 220 196 176 143 153 126 84 24 339 27 11 17 15 13 4 15 24 25 25 23 25 31 29 25 28 34 30 23 23
340 319 281 304 316 320 338 229 201 231 257 223 235 217 276 229 271 3 216 139 151 107 103 222 3 344 338 356 8 15 8 11 24 32 28 33 37 31 32 31 32 35 42 37
309 300 296 300 299 278 251 257 183 205 287 228 208 244 239 228 223 251 203 128 168 86 157 186 316 307 323 346 0 9 7 345 333 2 19 21 25 34 35 30 28 27 36 44
320 316 283 297 258 4 315 328 304 304 268 267 284 313 212 197 199 165 211 101 86 142 108 170 249 273 280 330 351 4 3 5 344 323 337 5 7 8 15 21 27 28 26 36
294 290 322 248 272 236 232 231 274 293 274 310 309 262 228 184 179 161 158 78 174 125 143 215 195 268 318 327 338 354 352 354 358 349 348 349 5 360 359 2 5 21 26 30
264 212 250 231 270 284 278 285 294 311 308 322 253 196 215 134 139 50 125 170 95 215 201 255 259 319 309 313 323 336 338 325 354 13 5 357 359 6 9 16 19 11 22 28
230 234 251 247 271 285 289 268 284 313 323 327 295 258 241 82 20 199 91 90 169 75 255 294 310 331 350 326 318 318 332 315 327 17 9 352 360 10 8 8 19 21 22 18
235 247 252 255 273 270 271 270 283 293 314 309 313 300 354 112 189 132 180 77 54 104 317 311 29 21 359 347 339 319 329 326 193 25 14 358 0 23 25 29 29 28 31 30